Hourly Data Report for May 15, 2021

VINELAND STATION RCS
ONTARIO
Current Station Operator: ECCC - MSC

43°11'00.000" N
79°24'00.000" W
79.20 m
6139148
71171
XVN

Download Data

Hourly Data (May 2021)
Hourly Data Report for May 15, 2021
TIME
LST
Temp Definition
°C
Dew Point Definition
°C
Rel Hum Definition
%
Precip. Amount Definition
mm

Wind Dir Definition
10's deg

Wind Spd Definition
km/h
Visibility Definition
km
Stn Press Definition
kPa
Hmdx Definition


Wind Chill Definition


Weather Definition


00:00 11.1 1.4 51 0.0 36 4   101.35     LegendNANA
01:00 8.6 2.4 65 0.0 17 4   101.35     LegendNANA
02:00 9.6 -0.6 49 0.0 21 11   101.34     LegendNANA
03:00 8.8 -0.8 51 0.0 19 7   101.34     LegendNANA
04:00 7.8 3.2 72 0.0 19 11   101.36     LegendNANA
05:00 8.1 3.0 70 0.0 19 9   101.39     LegendNANA
06:00 9.2 3.7 68 0.0 20 11   101.43     LegendNANA
07:00 12.8 3.8 54 0.0 22 8   101.45     LegendNANA
08:00 15.0 3.8 47 0.0 21 11   101.47     LegendNANA
09:00 17.9 1.8 34 0.0 23 4   101.47     LegendNANA
10:00 18.0 4.2 40 0.0 2 7   101.50     LegendNANA
11:00 19.6 1.5 30 0.0 2 8   101.49     LegendNANA
12:00 20.1 1.9 30 0.0 5 10   101.43     LegendNANA
13:00 20.1 3.9 34 0.0 9 5   101.37     LegendNANA
14:00 21.2 0.6 25 0.0 18 9   101.33     LegendNANA
15:00 20.6 1.8 29 0.0 24 10   101.31     LegendNANA
16:00 21.7 -0.7 22 0.0 22 16   101.28     LegendNANA
17:00 21.7 0.2 24 0.0 21 17   101.26     LegendNANA
18:00 20.8 -0.4 24 0.0 21 16   101.25     LegendNANA
19:00 18.1 0.1 30 0.0 20 8   101.23     LegendNANA
20:00 16.2 0.0 33 0.0 20 8   101.24     LegendNANA
21:00 12.2 2.3 51 0.0 15 3   101.25     LegendNANA
22:00 11.0 2.8 57 0.0 16 3   101.27     LegendNANA
23:00 11.9 1.7 50 0.0 18 7   101.27     LegendNANA

Notes on Data Quality.

Legend

  • E = Estimated
  • M = Missing
  • NA = Not Available*
  • [empty] = Indicates an unobserved value
Date modified: